Tracking 27380 objects as of 5-Jun-2023
HD Live streaming from Space Station
objects crossing your sky now

DELTA 1 DEB

Track DELTA 1 DEB now!
10-day predictions


NORAD ID: 9978
Int'l Code: 1973-086GH
Perigee: 1,500.3 km
Apogee: 1,586.7 km
Inclination: 101.9 °
Period: 116.8 minutes
Semi major axis: 7914 km
RCS: 0.0391 m2 (small)
Launch date: November 6, 1973
Source: United States (US)
Launch site: AIR FORCE WESTERN TEST RANGE (AFWTR)

Note: This is SATELLITE DEBRIS
Your satellite tracking list
Your tracking list is empty




NASA's NSSDC Master Catalog

Two Line Element Set (TLE):
1 09978U 73086GH  23152.36859149  .00000056  00000-0  81005-3 0  9993
2 09978 101.9300 108.9047 0054564 191.1842 323.7175 12.33008383155626
Source of the keplerian elements: AFSPC